Vorticity
3 1 -2 -0 -1 -6 20 3 -8 -2 7 3 3 6 6 6 9 13 7 6 5 6 6 9 9 7 3 5 6 7 4 6 4 5 6 5 7 9 8 7 7 6 7 6 4 3 3 5 3
4 1 -1 -2 8 -3 14 -4 11 -3 2 3 4 5 7 5 3 6 7 7 5 4 5 7 9 10 6 3 3 6 3 13 6 4 5 4 4 7 8 7 6 5 5 5 6 6 6 5 2
4 3 -0 5 -9 -2 29 9 3 2 6 5 3 4 7 6 3 7 7 6 4 4 6 6 8 9 10 7 3 4 4 9 8 6 5 5 4 5 7 7 6 6 6 6 6 6 6 5 3
4 -1 -1 -3 2 -2 -5 10 -4 0 9 1 7 2 4 6 4 6 7 6 5 5 8 7 5 9 9 9 5 2 4 3 8 7 5 6 5 4 5 6 5 6 5 5 5 5 7 8 7
3 1 0 3 1 -0 21 -15 -0 1 4 9 3 4 4 5 4 5 7 6 7 7 7 10 6 5 11 8 8 5 4 4 5 7 6 6 6 5 4 4 4 5 4 4 5 5 5 4 4
4 3 2 1 8 4 -0 1 1 1 -1 3 3 4 3 3 2 1 3 6 5 6 3 5 10 6 5 11 7 8 4 4 4 6 7 7 6 6 5 5 4 4 3 3 4 4 4 5 5
2 3 3 -11 4 5 4 2 -2 1 1 6 3 6 4 2 2 3 3 2 3 2 3 2 4 10 7 5 11 8 7 5 4 4 6 6 7 5 5 5 6 5 5 3 2 3 4 4 4
4 2 2 6 0 -5 9 3 1 0 8 14 8 11 5 6 1 2 4 6 4 3 3 3 3 5 10 6 6 11 8 6 5 4 5 5 5 7 6 4 5 5 6 6 4 3 3 5 5
2 4 3 1 3 -9 2 -3 2 2 -3 -10 1 1 5 4 3 1 3 4 5 6 5 4 4 4 6 9 7 6 10 8 7 6 4 6 4 6 5 5 3 4 3 5 4 3 4 4 6
2 2 4 -0 21 10 1 8 0 0 1 2 5 6 9 4 4 1 2 2 3 3 4 7 5 5 5 5 6 9 6 9 8 6 5 4 6 5 6 3 2 3 3 3 3 4 4 6 6
6 5 2 6 -5 -3 -2 1 -0 2 0 -1 -4 6 6 5 4 4 4 4 -1 2 3 4 6 5 6 7 6 5 9 5 8 8 7 6 5 4 5 4 4 6 4 4 4 4 4 4 3
13 6 6 1 3 4 4 -0 3 3 4 -4 10 4 2 10 6 5 3 5 5 3 1 -1 5 5 4 6 8 8 4 7 6 7 8 8 6 5 5 4 4 3 3 5 6 4 3 5 5
8 7 12 4 4 3 5 3 -2 2 2 2 -0 7 2 3 10 4 4 5 3 4 3 3 2 5 4 4 7 9 9 5 5 7 5 8 8 6 6 5 4 4 4 5 5 4 6 6 4
6 7 7 11 5 4 2 4 4 2 2 1 2 1 -0 8 9 -1 0 -1 3 3 3 5 3 4 5 4 4 8 10 9 7 6 6 7 6 7 9 9 8 7 6 5 4 4 3 3 5
4 10 6 11 13 5 5 2 3 3 4 2 4 1 1 2 3 -0 -12 2 -1 1 3 2 3 5 3 4 4 4 9 10 7 5 5 6 5 4 6 6 7 8 9 10 9 7 6 5 3
-4 5 11 6 11 9 9 2 5 4 3 1 2 2 2 2 -0 10 -5 1 3 1 2 3 2 2 7 3 4 3 3 7 9 9 9 10 10 11 10 9 8 8 7 7 7 8 9 8 10
17 7 -0 -2 8 8 9 8 5 5 5 3 1 1 1 2 2 1 6 0 1 4 -0 2 4 2 3 8 3 4 2 3 5 5 7 8 10 10 11 12 13 13 12 11 13 14 13 10 8
3 5 -4 -2 -1 8 9 7 13 5 7 7 2 1 1 2 3 1 3 2 3 4 1 2 5 4 5 4 7 3 3 3 2 3 3 4 4 6 5 5 4 3 5 7 9 10 14 14 14
12 9 -2 2 -2 -2 10 6 5 16 10 6 5 5 5 3 3 3 3 3 1 4 1 4 2 2 5 6 6 6 4 4 1 3 2 2 3 3 2 1 3 3 4 2 2 3 4 6 2
5 10 7 8 2 12 5 4 6 8 12 7 6 5 3 4 3 4 3 3 4 2 2 2 3 8 7 7 5 6 4 8 5 2 2 4 2 -0 1 1 1 2 1 3 2 2 1 2 3
10 5 9 7 8 12 2 3 1 6 5 12 7 5 4 3 1 2 4 4 4 4 4 5 8 4 4 5 4 4 5 2 5 6 5 1 0 -0 3 0 2 2 3 2 4 2 3 4 5
9 8 10 8 -7 -0 11 15 3 0 7 5 15 9 6 5 6 4 4 4 3 3 3 3 2 2 3 4 5 6 9 7 5 4 6 7 4 2 2 1 0 3 3 3 3 3 3 4 5
14 9 6 8 10 5 -12 8 7 -0 1 6 5 10 9 6 5 4 4 5 5 5 4 2 2 3 4 1 5 3 10 15 7 4 3 7 8 6 5 2 1 2 3 3 4 4 4 4 5
10 25 11 5 8 2 6 2 5 5 4 4 6 8 7 10 6 5 3 3 4 4 4 4 4 3 5 3 4 5 7 8 7 4 4 1 2 6 6 6 4 2 2 3 3 4 5 5 5
-5 7 28 43 23 7 7 6 1 5 5 7 1 27 7 7 13 11 6 4 4 3 4 4 3 3 3 4 5 6 6 5 4 4 6 5 4 3 6 6 6 5 3 4 4 3 3 6 6
23 -1 -18 4 6 52 -1 5 33 4 2 7 4 1 4 8 6 11 16 10 5 6 6 5 5 4 4 4 5 8 9 5 6 8 4 7 6 5 5 6 6 7 6 6 3 3 5 5 6
-16 14 22 11 -7 13 14 29 56 8 8 2 9 -1 9 5 -1 2 10 10 8 10 11 10 7 7 7 7 8 8 8 5 6 9 6 4 6 8 5 4 5 5 6 7 4 6 4 5 5
7 -5 20 16 14 0 -8 11 16 69 28 15 7 15 10 -3 12 13 12 1 4 4 9 9 12 9 8 7 6 7 5 6 8 6 8 7 7 9 6 4 5 5 8 5 5 5 5 6 5
39 22 -7 -2 24 39 -4 0 6 -26 17 40 24 11 11 11 1 3 0 0 10 11 8 4 2 8 9 6 10 8 8 7 7 8 7 6 6 8 6 3 5 9 11 5 4 3 5 6 6
9 19 40 16 -1 -18 14 18 11 17 34 1 7 19 20 16 17 14 3 5 2 -1 3 6 13 15 6 6 8 4 3 5 8 9 10 8 5 6 6 5 5 9 12 7 6 6 2 6 7
Height
5899 5900 5901 5902 5906 5906 5907 5913 5909 5905 5902 5900 5898 5897 5895 5893 5890 5891 5887 5886 5885 5884 5881 5879 5878 5878 5876 5876 5873 5870 5870 5869 5866 5865 5865 5865 5865 5867 5867 5866 5866 5867 5867 5868 5870 5871 5871 5871 5872
5898 5899 5901 5902 5906 5909 5913 5909 5908 5906 5902 5901 5899 5897 5895 5893 5891 5889 5888 5887 5886 5885 5883 5881 5879 5879 5878 5877 5874 5872 5871 5871 5870 5868 5867 5867 5868 5869 5869 5869 5870 5871 5871 5871 5871 5872 5873 5874 5874
5897 5898 5900 5901 5904 5910 5902 5909 5906 5903 5902 5900 5900 5898 5897 5894 5892 5891 5889 5888 5887 5886 5885 5883 5881 5880 5879 5878 5877 5874 5873 5873 5872 5871 5870 5869 5869 5871 5871 5872 5873 5873 5874 5874 5874 5874 5875 5876 5877
5895 5897 5898 5899 5904 5908 5908 5906 5903 5903 5902 5900 5899 5898 5898 5895 5893 5892 5890 5890 5889 5887 5886 5884 5882 5881 5880 5879 5878 5877 5875 5875 5875 5874 5873 5873 5873 5872 5873 5874 5874 5876 5876 5877 5877 5877 5878 5879 5879
5892 5894 5895 5897 5902 5908 5902 5902 5903 5902 5902 5901 5901 5899 5898 5897 5895 5893 5892 5891 5890 5889 5887 5885 5884 5882 5882 5880 5880 5878 5878 5876 5877 5876 5876 5875 5875 5875 5875 5876 5877 5877 5878 5878 5879 5880 5880 5881 5881
5889 5891 5893 5896 5901 5903 5898 5899 5901 5902 5901 5901 5901 5899 5898 5897 5896 5894 5893 5892 5891 5890 5889 5887 5886 5884 5883 5881 5881 5880 5879 5878 5877 5878 5878 5877 5877 5877 5878 5879 5879 5879 5879 5880 5880 5881 5882 5883 5883
5884 5886 5889 5893 5902 5900 5894 5896 5898 5900 5900 5900 5900 5898 5898 5897 5896 5895 5894 5892 5892 5891 5890 5889 5887 5885 5884 5883 5882 5881 5880 5880 5880 5880 5880 5880 5879 5879 5880 5881 5882 5881 5881 5881 5882 5882 5883 5884 5884
5879 5879 5884 5888 5894 5897 5888 5893 5895 5898 5900 5898 5900 5897 5897 5897 5895 5894 5894 5893 5892 5891 5890 5889 5888 5887 5885 5884 5883 5882 5882 5882 5882 5882 5882 5881 5881 5880 5881 5882 5883 5883 5883 5883 5883 5884 5885 5885 5885
5871 5874 5879 5885 5887 5892 5884 5889 5891 5894 5898 5896 5897 5895 5896 5895 5895 5893 5893 5893 5892 5891 5891 5890 5889 5888 5887 5885 5884 5883 5883 5882 5882 5883 5883 5883 5883 5883 5883 5883 5884 5885 5885 5885 5885 5885 5886 5886 5887
5862 5866 5875 5881 5883 5883 5879 5883 5884 5889 5892 5894 5894 5894 5894 5894 5894 5893 5892 5893 5892 5892 5890 5890 5889 5888 5888 5886 5885 5884 5884 5883 5883 5883 5883 5884 5884 5885 5885 5885 5885 5885 5886 5886 5887 5887 5887 5888 5888
5856 5859 5868 5870 5867 5870 5874 5878 5879 5884 5886 5888 5891 5891 5892 5892 5892 5892 5891 5892 5891 5891 5890 5890 5889 5889 5888 5887 5886 5885 5885 5884 5884 5883 5883 5884 5884 5884 5885 5885 5886 5886 5887 5887 5887 5888 5888 5888 5889
5846 5849 5857 5857 5861 5866 5870 5873 5872 5877 5882 5884 5885 5887 5889 5889 5889 5889 5889 5889 5890 5890 5890 5890 5889 5889 5888 5887 5886 5886 5886 5885 5884 5884 5884 5884 5884 5885 5885 5885 5885 5885 5886 5886 5887 5888 5888 5889 5889
5837 5840 5848 5849 5852 5858 5862 5862 5868 5872 5876 5875 5881 5882 5886 5886 5886 5887 5887 5886 5887 5888 5888 5889 5889 5889 5888 5887 5886 5886 5886 5886 5885 5885 5885 5884 5884 5884 5884 5884 5884 5884 5884 5885 5885 5885 5886 5887 5887
5827 5829 5836 5837 5843 5848 5850 5856 5861 5864 5869 5869 5873 5877 5880 5882 5883 5883 5884 5884 5884 5885 5886 5886 5887 5887 5887 5886 5886 5885 5885 5886 5885 5885 5885 5885 5885 5884 5884 5884 5884 5884 5884 5884 5884 5884 5883 5883 5884
5815 5816 5823 5829 5835 5837 5841 5845 5846 5856 5861 5862 5867 5871 5873 5877 5878 5880 5881 5881 5881 5883 5883 5883 5884 5885 5885 5885 5885 5885 5885 5884 5884 5884 5884 5885 5885 5884 5884 5883 5883 5884 5883 5883 5882 5882 5881 5881 5880
5803 5806 5810 5826 5825 5829 5829 5832 5843 5850 5855 5855 5858 5862 5865 5869 5873 5875 5876 5877 5878 5878 5880 5880 5881 5882 5882 5883 5883 5883 5883 5883 5883 5882 5883 5884 5884 5884 5883 5883 5883 5883 5883 5882 5881 5881 5880 5878 5878
5789 5795 5803 5814 5816 5818 5815 5822 5836 5839 5845 5845 5849 5853 5856 5861 5865 5867 5869 5872 5873 5873 5874 5876 5877 5878 5879 5880 5881 5881 5881 5881 5881 5881 5881 5881 5882 5882 5882 5882 5881 5881 5881 5881 5880 5879 5878 5878 5876
5785 5792 5796 5802 5807 5805 5803 5810 5820 5827 5835 5835 5840 5845 5848 5851 5856 5859 5861 5864 5865 5867 5869 5870 5872 5873 5874 5876 5877 5877 5878 5879 5879 5880 5880 5880 5880 5880 5880 5879 5879 5880 5880 5879 5879 5878 5876 5875 5874
5772 5773 5780 5787 5793 5793 5791 5797 5806 5818 5823 5825 5832 5837 5840 5841 5846 5849 5853 5855 5858 5860 5863 5866 5866 5867 5868 5870 5872 5873 5873 5874 5876 5877 5877 5878 5878 5878 5878 5878 5877 5877 5877 5876 5875 5875 5874 5873 5872
5754 5759 5766 5772 5774 5776 5779 5786 5796 5801 5808 5815 5818 5826 5831 5832 5835 5838 5842 5846 5850 5853 5855 5858 5861 5862 5862 5863 5865 5866 5867 5869 5871 5872 5874 5874 5875 5875 5875 5875 5875 5874 5874 5873 5872 5871 5871 5870 5868
5734 5740 5751 5756 5758 5755 5764 5770 5782 5789 5795 5801 5803 5812 5819 5823 5825 5828 5834 5835 5841 5845 5848 5851 5854 5854 5856 5858 5858 5859 5861 5863 5865 5867 5867 5868 5869 5869 5871 5871 5871 5871 5870 5870 5868 5867 5867 5866 5865
5717 5728 5732 5737 5741 5739 5751 5754 5771 5778 5779 5788 5796 5800 5809 5813 5817 5819 5822 5826 5832 5836 5839 5842 5845 5846 5848 5850 5850 5854 5856 5856 5858 5858 5859 5861 5862 5864 5865 5865 5865 5865 5865 5864 5864 5862 5862 5861 5860
5703 5709 5715 5721 5725 5725 5732 5737 5758 5767 5769 5774 5784 5788 5793 5799 5804 5808 5813 5816 5821 5825 5827 5831 5833 5836 5839 5842 5844 5844 5847 5850 5850 5849 5851 5853 5855 5856 5857 5858 5859 5859 5859 5859 5857 5857 5856 5855 5854
5690 5694 5697 5704 5708 5702 5720 5728 5741 5756 5761 5767 5770 5775 5781 5786 5790 5794 5798 5805 5808 5811 5815 5819 5823 5829 5829 5831 5836 5836 5839 5841 5841 5842 5843 5844 5845 5847 5848 5850 5851 5852 5852 5852 5851 5849 5850 5849 5847
5670 5677 5682 5686 5686 5688 5714 5713 5725 5746 5752 5757 5759 5763 5765 5773 5777 5783 5785 5793 5794 5799 5803 5805 5812 5817 5819 5821 5824 5828 5828 5831 5831 5833 5834 5834 5836 5838 5840 5841 5842 5843 5844 5844 5843 5843 5842 5841 5840
5660 5665 5671 5677 5683 5688 5699 5694 5704 5732 5735 5743 5748 5749 5753 5756 5766 5771 5775 5778 5782 5785 5790 5793 5799 5804 5807 5809 5812 5816 5818 5819 5822 5823 5824 5825 5826 5828 5829 5831 5833 5834 5835 5835 5835 5835 5834 5833 5832
5651 5652 5666 5669 5675 5679 5688 5692 5697 5713 5719 5729 5730 5734 5737 5747 5752 5758 5760 5763 5768 5772 5777 5782 5786 5789 5794 5798 5800 5803 5806 5807 5811 5813 5814 5814 5816 5817 5818 5820 5822 5823 5826 5826 5826 5826 5825 5824 5823
5635 5649 5656 5654 5656 5661 5671 5682 5690 5699 5704 5709 5718 5722 5726 5735 5738 5742 5745 5748 5753 5758 5763 5767 5773 5776 5781 5785 5788 5790 5793 5796 5799 5799 5801 5803 5805 5807 5807 5810 5811 5811 5815 5815 5815 5816 5815 5815 5814
5633 5634 5639 5647 5650 5649 5657 5665 5681 5688 5693 5693 5698 5704 5710 5714 5722 5727 5726 5731 5739 5744 5748 5754 5759 5764 5768 5772 5776 5779 5782 5784 5786 5788 5789 5792 5794 5796 5797 5799 5800 5802 5803 5803 5804 5805 5804 5804 5803
5623 5628 5626 5630 5637 5641 5643 5650 5670 5677 5683 5686 5685 5685 5692 5695 5701 5704 5710 5717 5723 5729 5732 5737 5743 5749 5754 5758 5762 5766 5769 5771 5773 5776 5779 5780 5782 5784 5787 5788 5789 5791 5792 5792 5793 5793 5793 5793 5793